H1 CPF 2 NER 2023 12 12 9 346 01 glonass143 H2 2007501 9143 46805 2023 12 12 0 0 0 2023 12 15 23 45 0 900 1 1 0 0 0 1 H9 10 0 60290 0.00000 0 -6338417.750 16028465.972 -18802711.031 10 0 60290 900.00000 0 -7982853.560 17486609.921 -16768884.431 10 0 60290 1800.00000 0 -9319259.125 18875839.177 -14409381.466 10 0 60290 2700.00000 0 -10340545.958 20134200.173 -11770058.593 10 0 60290 3600.00000 0 -11052420.852 21201635.287 -8902195.011 10 0 60290 4500.00000 0 -11472880.213 22022539.891 -5861495.614 10 0 60290 5400.00000 0 -11631193.343 22548151.345 -2707008.340 10 0 60290 6300.00000 0 -11566418.821 22738669.446 500022.951 10 0 60290 7200.00000 0 -11325517.662 22565019.062 3697347.587 10 0 60290 8100.00000 0 -10961143.854 22010180.714 6822915.876 10 0 60290 9000.00000 0 -10529206.279 21070032.984 9816082.014 10 0 60290 9900.00000 0 -10086305.520 19753671.141 12618778.572 10 0 60290 10800.00000 0 -9687154.107 18083188.297 15176639.881 10 0 60290 11700.00000 0 -9382089.269 16092927.846 17440052.716 10 0 60290 12600.00000 0 -9214783.132 13828237.943 19365114.264 10 0 60290 13500.00000 0 -9220246.860 11343779.399 20914479.309 10 0 60290 14400.00000 0 -9423212.825 8701456.736 22058080.818 10 0 60290 15300.00000 0 -9836962.948 5968057.660 22773710.525 10 0 60290 16200.00000 0 -10462652.768 3212698.093 23047448.752 10 0 60290 17100.00000 0 -11289160.113 504177.808 22873935.478 10 0 60290 18000.00000 0 -12293465.433 -2091644.603 22256477.470 10 0 60290 18900.00000 0 -13441548.750 -4514349.520 21206989.240 10 0 60290 19800.00000 0 -14689766.636 -6711224.120 19745768.500 10 0 60290 20700.00000 0 -15986652.506 -8639206.853 17901109.833 10 0 60290 21600.00000 0 -17275065.665 -10266428.410 15708763.235 10 0 60290 22500.00000 0 -18494599.721 -11573285.634 13211247.156 10 0 60290 23400.00000 0 -19584149.660 -12553004.088 10457028.580 10 0 60290 24300.00000 0 -20484529.868 -13211666.268 7499585.410 10 0 60290 25200.00000 0 -21141032.767 -13567704.818 4396368.937 10 0 60290 26100.00000 0 -21505819.797 -13650882.610 1207686.482 10 0 60290 27000.00000 0 -21540043.225 -13500803.290 -2004473.880 10 0 60290 27900.00000 0 -21215608.345 -13165015.864 -5177653.220 10 0 60290 28800.00000 0 -20516500.715 -12696794.188 -8250142.025 10 0 60290 29700.00000 0 -19439621.379 -12152686.151 -11162186.329 10 0 60290 30600.00000 0 -17995093.874 -11589937.088 -13857155.474 10 0 60290 31500.00000 0 -16206029.247 -11063897.316 -16282648.059 10 0 60290 32400.00000 0 -14107758.172 -10625524.210 -18391514.077 10 0 60290 33300.00000 0 -11746561.831 -10319085.049 -20142773.110 10 0 60290 34200.00000 0 -9177954.268 -10180158.163 -21502410.668 10 0 60290 35100.00000 0 -6464587.656 -10234017.058 -22444037.442 10 0 60290 36000.00000 0 -3673867.557 -10494465.813 -22949399.032 10 0 60290 36900.00000 0 -875377.231 -10963174.872 -23008726.703 10 0 60290 37800.00000 0 1861782.268 -11629545.184 -22620922.879 10 0 60290 38700.00000 0 4471626.140 -12471106.328 -21793578.214 10 0 60290 39600.00000 0 6893785.237 -13454431.893 -20542820.205 10 0 60290 40500.00000 0 9075767.758 -14536533.564 -18892996.555 10 0 60290 41400.00000 0 10974890.229 -15666675.382 -16876199.421 10 0 60290 42300.00000 0 12559798.516 -16788531.900 -14531639.844 10 0 60290 43200.00000 0 13811516.792 -17842599.542 -11904884.369 10 0 60290 44100.00000 0 14723982.075 -18768759.745 -9046968.592 10 0 60290 45000.00000 0 15304043.398 -19508885.977 -6013404.834 10 0 60290 45900.00000 0 15570927.131 -20009384.814 -2863103.228 10 0 60290 46800.00000 0 15555192.286 -20223563.968 342772.748 10 0 60290 47700.00000 0 15297221.010 -20113727.309 3541993.838 10 0 60290 48600.00000 0 14845308.933 -19652908.492 6672472.446 10 0 60290 49500.00000 0 14253436.747 -18826169.865 9673466.336 10 0 60290 50400.00000 0 13578817.637 -17631411.712 12486755.078 10 0 60290 51300.00000 0 12879324.439 -16079657.350 15057766.500 10 0 60290 52200.00000 0 12210905.178 -14194801.558 17336631.473 10 0 60290 53100.00000 0 11625095.932 -12012832.176 19279146.913 10 0 60290 54000.00000 0 11166735.636 -9580556.610 20847628.836 10 0 60290 54900.00000 0 10871978.818 -6953885.403 22011639.525 10 0 60290 55800.00000 0 10766689.642 -4195743.324 22748575.260 10 0 60290 56700.00000 0 10865284.675 -1373693.714 23044103.740 10 0 60290 57600.00000 0 11170073.033 1442626.447 22892443.048 10 0 60290 58500.00000 0 11671121.886 4184155.406 22296476.841 10 0 60290 59400.00000 0 12346653.421 6785030.699 21267703.393 10 0 60290 60300.00000 0 13163957.256 9185080.524 19826019.021 10 0 60290 61200.00000 0 14080780.731 11332079.821 17999339.450 10 0 60290 62100.00000 0 15047139.443 13183678.045 15823065.678 10 0 60290 63000.00000 0 16007472.603 14708918.964 13339403.776 10 0 60290 63900.00000 0 16903053.026 15889289.562 10596551.077 10 0 60290 64800.00000 0 17674550.521 16719254.650 7647763.880 10 0 60290 65700.00000 0 18264640.566 17206255.189 4550324.323 10 0 60290 66600.00000 0 18620547.842 17370170.827 1364426.455 10 0 60290 67500.00000 0 18696416.591 17242269.781 -1847996.719 10 0 60290 68400.00000 0 18455406.774 16863690.900 -5024481.939 10 0 60290 69300.00000 0 17871426.459 16283522.666 -8103255.945 10 0 60290 70200.00000 0 16930426.095 15556561.034 -11024442.797 10 0 60290 71100.00000 0 15631198.949 14740841.664 -13731233.998 10 0 60290 72000.00000 0 13985652.838 13895051.657 -16170997.929 10 0 60290 72900.00000 0 12018540.750 13075930.869 -18296306.547 10 0 60290 73800.00000 0 9766660.784 12335773.142 -20065859.072 10 0 60290 74700.00000 0 7277558.253 11720133.336 -21445284.667 10 0 60290 75600.00000 0 4607783.625 11265837.067 -22407808.709 10 0 60290 76500.00000 0 1820778.543 10999377.006 -22934770.068 10 0 60290 77400.00000 0 -1015522.446 10935763.145 -23015979.806 10 0 60290 78300.00000 0 -3831275.068 11077875.053 -22649914.841 10 0 60290 79200.00000 0 -6557386.580 11416343.052 -21843743.255 10 0 60290 80100.00000 0 -9128145.046 11929962.862 -20613181.107 10 0 60290 81000.00000 0 -11483708.166 12586625.931 -18982183.741 10 0 60290 81900.00000 0 -13572348.988 13344725.969 -16982477.675 10 0 60290 82800.00000 0 -15352366.082 14154982.238 -14652942.131 10 0 60290 83700.00000 0 -16793579.670 14962602.630 -12038852.121 10 0 60290 84600.00000 0 -17878352.512 15709695.227 -9190997.705 10 0 60290 85500.00000 0 -18602094.132 16337826.578 -6164696.452 10 0 60291 0.00000 0 -18973228.563 16790618.591 -3018718.603 10 0 60291 900.00000 0 -19012628.397 17016274.563 185855.818 10 0 60291 1800.00000 0 -18752539.687 16969926.963 3386821.324 10 0 60291 2700.00000 0 -18235044.693 16615708.523 6522055.124 10 0 60291 3600.00000 0 -17510127.524 15928458.291 9530721.327 10 0 60291 4500.00000 0 -16633425.125 14894990.681 12354449.331 10 0 60291 5400.00000 0 -15663758.781 13514873.507 14938463.289 10 0 60291 6300.00000 0 -14660550.333 11800681.708 17232640.953 10 0 60291 7200.00000 0 -13681231.893 9777715.295 19192481.652 10 0 60291 8100.00000 0 -12778757.854 7483192.430 20779965.168 10 0 60291 9000.00000 0 -11999323.445 4964950.214 21964285.410 10 0 60291 9900.00000 0 -11380385.319 2279706.210 22722445.251 10 0 60291 10800.00000 0 -10949066.864 -509048.255 23039701.492 10 0 60291 11700.00000 0 -10721014.873 -3333436.755 22909851.678 10 0 60291 12600.00000 0 -10699755.382 -6123770.495 22335357.321 10 0 60291 13500.00000 0 -10876575.717 -8811199.555 21327300.984 10 0 60291 14400.00000 0 -11230937.910 -11330333.727 19905177.650 10 0 60291 15300.00000 0 -11731406.461 -13621725.026 18096523.785 10 0 60291 16200.00000 0 -12337051.915 -15634109.460 15936390.500 10 0 60291 17100.00000 0 -12999271.672 -17326315.331 13466670.144 10 0 60291 18000.00000 0 -13663951.720 -18668758.901 10735288.636 10 0 60291 18900.00000 0 -14273878.386 -19644465.260 7795278.515 10 0 60291 19800.00000 0 -14771298.307 -20249571.924 4703750.296 10 0 60291 20700.00000 0 -15100518.177 -20493294.253 1520781.992 10 0 60291 21600.00000 0 -15210433.837 -20397354.499 -1691751.461 10 0 60291 22500.00000 0 -15056880.897 -19994898.877 -4871385.663 10 0 60291 23400.00000 0 -14604706.485 -19328948.844 -7956286.970 10 0 60291 24300.00000 0 -13829473.351 -18450452.544 -10886460.928 10 0 60291 25200.00000 0 -12718723.117 -17416019.331 -13604924.700 10 0 60291 26100.00000 0 -11272744.153 -16285433.749 -16058819.904 10 0 60291 27000.00000 0 -9504810.571 -15119054.546 -18200443.742 10 0 60291 27900.00000 0 -7440881.216 -13975208.967 -19988178.082 10 0 60291 28800.00000 0 -5118770.373 -12907692.575 -21387298.347 10 0 60291 29700.00000 0 -2586824.106 -11963480.037 -22370646.715 10 0 60291 30600.00000 0 97843.194 -11180743.150 -22919156.884 10 0 60291 31500.00000 0 2871479.028 -10587259.155 -23022220.697 10 0 60291 32400.00000 0 5666101.693 -10199275.745 -22677889.979 10 0 60291 33300.00000 0 8412088.186 -10020879.809 -21892910.137 10 0 60291 34200.00000 0 11040834.078 -10043895.738 -20682585.197 10 0 60291 35100.00000 0 13487375.445 -10248316.798 -19070477.131 10 0 60291 36000.00000 0 15692864.551 -10603250.728 -17087945.384 10 0 60291 36900.00000 0 17606797.040 -11068339.155 -14773535.521 10 0 60291 37800.00000 0 19188898.745 -11595590.466 -12172228.811 10 0 60291 38700.00000 0 20410594.418 -12131548.465 -9334567.180 10 0 60291 39600.00000 0 21255998.010 -12619704.938 -6315670.511 10 0 60291 40500.00000 0 21722384.201 -13003053.992 -3174165.383 10 0 60291 41400.00000 0 21820122.504 -13226680.012 28953.887 10 0 60291 42300.00000 0 21572077.787 -13240269.644 3231509.579 10 0 60291 43200.00000 0 21012503.405 -13000441.410 6371347.099 10 0 60291 44100.00000 0 20185474.360 -12472794.262 9387540.119 10 0 60291 45000.00000 0 19142927.102 -11633588.217 12221570.809 10 0 60291 45900.00000 0 17942388.940 -10470985.767 14818462.260 10 0 60291 46800.00000 0 16644492.813 -8985801.116 17127841.335 10 0 60291 47700.00000 0 15310381.963 -7191725.016 19104911.631 10 0 60291 48600.00000 0 13999113.307 -5115014.767 20711318.166 10 0 60291 49500.00000 0 12765168.181 -2793661.214 21915887.593 10 0 60291 50400.00000 0 11656174.326 -276066.261 22695230.151 10 0 60291 51300.00000 0 10710934.080 2380715.375 23034192.197 10 0 60291 52200.00000 0 9957840.814 5113098.439 22926150.890 10 0 60291 53100.00000 0 9413749.463 7853366.616 22373145.447 10 0 60291 54000.00000 0 9083348.140 10532250.891 21385842.294 10 0 60291 54900.00000 0 8959056.926 13081580.946 19983334.392 10 0 60291 55800.00000 0 9021458.036 15436900.380 18192778.000 10 0 60291 56700.00000 0 9240239.384 17539937.875 16048873.158 10 0 60291 57600.00000 0 9575611.965 19340831.976 13593197.072 10 0 60291 58500.00000 0 9980141.558 20800017.071 10873402.579 10 0 60291 59400.00000 0 10400917.558 21889692.022 7942296.563 10 0 60291 60300.00000 0 10781967.301 22594810.049 4856815.777 10 0 60291 61200.00000 0 11066813.554 22913548.415 1676919.851 10 0 60291 62100.00000 0 11201066.457 22857238.292 -1535576.856 10 0 60291 63000.00000 0 11134939.484 22449757.870 -4718211.428 10 0 60291 63900.00000 0 10825581.918 21726414.602 -7809092.485 10 0 60291 64800.00000 0 10239128.066 20732364.049 -10748109.679 10 0 60291 65700.00000 0 9352375.272 19520632.526 -13478108.354 10 0 60291 66600.00000 0 8154018.631 18149827.484 -15946005.740 10 0 60291 67500.00000 0 6645389.045 16681632.725 -18103826.510 10 0 60291 68400.00000 0 4840662.393 15178194.425 -19909637.231 10 0 60291 69300.00000 0 2766529.940 13699508.396 -21328361.473 10 0 60291 70200.00000 0 461342.851 12300918.581 -22332459.912 10 0 60291 71100.00000 0 -2026234.252 11030831.814 -22902462.574 10 0 60291 72000.00000 0 -4639005.180 9928744.441 -23027343.315 10 0 60291 72900.00000 0 -7313385.871 9023663.026 -22704729.778 10 0 60291 73800.00000 0 -9981821.243 8332984.579 -21940945.213 10 0 60291 74700.00000 0 -12575375.186 7861882.350 -20750881.687 10 0 60291 75600.00000 0 -15026386.523 7603221.925 -19157707.393 10 0 60291 76500.00000 0 -17271081.095 7538010.077 -17192413.830 10 0 60291 77400.00000 0 -19252031.799 7636356.534 -14893211.623 10 0 60291 78300.00000 0 -20920364.820 7858907.224 -12304786.651 10 0 60291 79200.00000 0 -22237620.740 8158687.865 -9477430.792 10 0 60291 80100.00000 0 -23177193.561 8483279.429 -6466064.126 10 0 60291 81000.00000 0 -23725288.295 8777233.104 -3329167.586 10 0 60291 81900.00000 0 -23881357.857 8984622.266 -127646.822 10 0 60291 82800.00000 0 -23658001.798 9051623.183 3076350.429 10 0 60291 83700.00000 0 -23080331.958 8929015.015 6220640.359 10 0 60291 84600.00000 0 -22184832.436 8574493.076 9244208.886 10 0 60291 85500.00000 0 -21017762.405 7954697.273 12088393.689 10 0 60292 0.00000 0 -19633169.483 7046869.735 14698019.329 10 0 60292 900.00000 0 -18090596.583 5840070.661 17022464.968 10 0 60292 1800.00000 0 -16452580.468 4335901.769 19016640.820 10 0 60292 2700.00000 0 -14782044.268 2548704.432 20641859.535 10 0 60292 3600.00000 0 -13139694.649 505224.252 21866582.648 10 0 60292 4500.00000 0 -11581531.398 -1756245.612 22667029.587 10 0 60292 5400.00000 0 -10156573.059 -4187207.933 23027637.728 10 0 60292 6300.00000 0 -8904893.001 -6730737.221 22941364.933 10 0 60292 7200.00000 0 -7856047.370 -9323615.404 22409828.838 10 0 60292 8100.00000 0 -7027959.986 -11898740.002 21443280.056 10 0 60292 9000.00000 0 -6426310.331 -14387705.985 20060409.466 10 0 60292 9900.00000 0 -6044449.839 -16723455.009 18287992.685 10 0 60292 10800.00000 0 -5863849.709 -18842882.669 16160377.868 10 0 60292 11700.00000 0 -5855061.253 -20689295.779 13718825.910 10 0 60292 12600.00000 0 -5979148.236 -22214617.476 11010715.066 10 0 60292 13500.00000 0 -6189530.704 -23381248.157 8088624.766 10 0 60292 14400.00000 0 -6434162.280 -24163504.325 5009315.936 10 0 60292 15300.00000 0 -6657948.545 -24548574.856 1832627.534 10 0 60292 16200.00000 0 -6805303.682 -24536954.375 -1379689.155 10 0 60292 17100.00000 0 -6822736.407 -24142335.413 -4565175.394 10 0 60292 18000.00000 0 -6661354.763 -23390963.870 -7661884.931 10 0 60292 18900.00000 0 -6279182.648 -22320485.065 -10609594.548 10 0 60292 19800.00000 0 -5643188.845 -20978329.252 -13350980.887 10 0 60292 20700.00000 0 -4730941.530 -19419704.981 -15832739.957 10 0 60292 21600.00000 0 -3531817.160 -17705285.222 -18006626.999 10 0 60292 22500.00000 0 -2047711.579 -15898683.993 -19830396.206 10 0 60292 23400.00000 0 -293222.301 -14063829.903 -21268621.947 10 0 60292 24300.00000 0 1704706.719 -12262347.002 -22293385.682 10 0 60292 25200.00000 0 3907663.840 -10551052.753 -22884815.607 10 0 60292 26100.00000 0 6267136.101 -8979677.634 -23031468.963 10 0 60292 27000.00000 0 8726306.850 -7588901.316 -22730550.112 10 0 60292 27900.00000 0 11222210.329 -6408786.736 -21987960.588 10 0 60292 28800.00000 0 13688154.010 -5457676.626 -20818180.500 10 0 60292 29700.00000 0 16056308.332 -4741597.491 -19243983.850 10 0 60292 30600.00000 0 18260356.534 -4254194.714 -17295993.350 10 0 60292 31500.00000 0 20238094.637 -3977200.256 -15012083.410 10 0 60292 32400.00000 0 21933873.705 -3881412.002 -12436642.792 10 0 60292 33300.00000 0 23300782.988 -3928142.431 -9619711.138 10 0 60292 34200.00000 0 24302483.250 -4071074.555 -6616006.104 10 0 60292 35100.00000 0 24914614.175 -4258445.969 -3483859.969 10 0 60292 36000.00000 0 25125717.517 -4435468.069 -284086.434 10 0 60292 36900.00000 0 24937637.878 -4546877.607 2921200.213 10 0 60292 37800.00000 0 24365384.914 -4539512.241 6069790.448 10 0 60292 38700.00000 0 23436463.297 -4364800.742 9100585.847 10 0 60292 39600.00000 0 22189699.044 -3981062.236 11954782.819 10 0 60292 40500.00000 0 20673611.813 -3355516.952 14577010.778 10 0 60292 41400.00000 0 18944401.658 -2465923.149 16916402.858 10 0 60292 42300.00000 0 17063634.655 -1301770.649 18927578.640 10 0 60292 43200.00000 0 15095724.119 135019.973 20571520.312 10 0 60292 44100.00000 0 13105312.436 1829922.907 21816325.832 10 0 60292 45000.00000 0 11154662.360 3756165.751 22637825.000 10 0 60292 45900.00000 0 9301166.051 5875607.625 23020047.038 10 0 60292 46800.00000 0 7595075.004 8140101.552 22955530.973 10 0 60292 47700.00000 0 6077544.778 10493285.761 22445472.932 10 0 60292 48600.00000 0 4779075.323 12872730.781 21499707.423 10 0 60292 49500.00000 0 3718411.232 15212354.307 20136522.573 10 0 60292 50400.00000 0 2901947.278 17445004.409 18382312.341 10 0 60292 51300.00000 0 2323663.502 19505104.450 16271071.664 10 0 60292 52200.00000 0 1965592.139 21331250.061 13843743.495 10 0 60292 53100.00000 0 1798796.358 22868650.093 11147429.626 10 0 60292 54000.00000 0 1784819.266 24071309.594 8234479.905 10 0 60292 54900.00000 0 1877541.699 24903863.245 5161477.108 10 0 60292 55800.00000 0 2025369.891 25342982.073 1988137.011 10 0 60292 56700.00000 0 2173659.910 25378293.970 -1223854.825 10 0 60292 57600.00000 0 2267275.560 25012778.950 -4412046.551 10 0 60292 58500.00000 0 2253170.485 24262622.232 -7514439.771 10 0 60292 59400.00000 0 2082884.144 23156531.133 -10470701.050 10 0 60292 60300.00000 0 1714844.832 21734544.528 -13223340.875 10 0 60292 61200.00000 0 1116381.140 20046385.094 -15718836.407 10 0 60292 62100.00000 0 265355.674 18149423.871 -17908675.651 10 0 60292 63000.00000 0 -848649.078 16106342.911 -19750302.445 10 0 60292 63900.00000 0 -2223643.755 13982594.399 -21207943.775 10 0 60292 64800.00000 0 -3845073.927 11843762.869 -22253303.511 10 0 60292 65700.00000 0 -5686198.206 9752940.954 -22866109.421 10 0 60292 66600.00000 0 -7708987.664 7768228.157 -23034503.270 10 0 60292 67500.00000 0 -9865509.622 5940456.703 -22755266.954 10 0 60292 68400.00000 0 -12099738.678 4311238.646 -22033880.718 10 0 60292 69300.00000 0 -14349719.915 2911414.809 -20884412.710 10 0 60292 70200.00000 0 -16549994.573 1759969.140 -19329242.269 10 0 60292 71100.00000 0 -18634187.492 863452.465 -17398622.403 10 0 60292 72000.00000 0 -20537648.765 215938.331 -15130089.969 10 0 60292 72900.00000 0 -22200039.726 -200488.691 -12567734.921 10 0 60292 73800.00000 0 -23567755.619 -414734.189 -9761342.697 10 0 60292 74700.00000 0 -24596083.959 -465227.859 -6765426.335 10 0 60292 75600.00000 0 -25251008.594 -398053.165 -3638167.095 10 0 60292 76500.00000 0 -25510584.241 -264752.576 -440284.215 10 0 60292 77400.00000 0 -25365824.186 -119901.889 2766144.097 10 0 60292 78300.00000 0 -24821064.246 -18556.793 5918885.354 10 0 60292 79200.00000 0 -23893788.051 -13680.145 8956759.626 10 0 60292 80100.00000 0 -22613921.227 -153659.149 11820824.933 10 0 60292 81000.00000 0 -21022624.278 -480017.707 14455518.187 10 0 60292 81900.00000 0 -19170634.812 -1025420.925 16809729.729 10 0 60292 82800.00000 0 -17116228.479 -1812056.364 18837790.832 10 0 60292 83700.00000 0 -14922883.649 -2850460.774 20500355.518 10 0 60292 84600.00000 0 -12656746.971 -4138842.383 21765160.101 10 0 60292 85500.00000 0 -10384005.025 -5662928.119 22607646.279 10 0 60293 0.00000 0 -8168271.099 -7396343.136 23011436.200 10 0 60293 900.00000 0 -6068093.954 -9301509.013 22968650.778 10 0 60293 1800.00000 0 -4134694.394 -11331022.169 22480064.828 10 0 60293 2700.00000 0 -2410019.067 -13429459.441 21555096.609 10 0 60293 3600.00000 0 -925194.680 -15535534.650 20211631.011 10 0 60293 4500.00000 0 300554.884 -17584518.292 18475679.518 10 0 60293 5400.00000 0 1260483.862 -19510820.239 16380882.728 10 0 60293 6300.00000 0 1960368.896 -21250628.359 13967864.255 10 0 60293 7200.00000 0 2418021.029 -22744493.146 11283447.755 10 0 60293 8100.00000 0 2662286.448 -23939750.264 8379751.610 10 0 60293 9000.00000 0 2731578.587 -24792679.352 5313178.345 10 0 60293 9900.00000 0 2672004.065 -25270308.027 2143318.310 10 0 60293 10800.00000 0 2535162.268 -25351784.788 -1068211.024 10 0 60293 11700.00000 0 2375712.410 -25029262.443 -4258967.171 10 0 60293 12600.00000 0 2248811.937 -24308254.326 -7366902.147 10 0 60293 13500.00000 0 2207535.699 -23207447.817 -10331574.928 10 0 60293 14400.00000 0 2300386.252 -21757982.660 -13095332.517 10 0 60293 15300.00000 0 2569001.751 -20002224.281 -15604435.894 10 0 60293 16200.00000 0 3046159.436 -17992083.617 -17810108.431 10 0 60293 17100.00000 0 3754160.089 -15786954.047 -19669486.068 10 0 60293 18000.00000 0 4703662.585 -13451352.057 -21146450.636 10 0 60293 18900.00000 0 5893018.466 -11052360.470 -22212330.341 10 0 60293 19800.00000 0 7308135.359 -8656981.107 -22846454.088 10 0 60293 20700.00000 0 8922875.634 -6329507.241 -23036549.348 10 0 60293 21600.00000 0 10699974.246 -4129025.027 -22778976.337 10 0 60293 22500.00000 0 12592437.920 -2107147.396 -22078794.429 10 0 60293 23400.00000 0 14545367.638 -306073.980 -20949659.862 10 0 60293 24300.00000 0 16498128.709 1242943.208 -19413557.014 10 0 60293 25200.00000 0 18386778.162 2520665.670 -17500368.534 10 0 60293 26100.00000 0 20146648.292 3520422.845 -15247292.697 10 0 60293 27000.00000 0 21714978.679 4248133.414 -12698119.221 10 0 60293 27900.00000 0 23033486.793 4721794.199 -9902377.493 10 0 60293 28800.00000 0 24050769.739 4970459.559 -6914373.675 10 0 60293 29700.00000 0 24724436.695 5032755.632 -3792135.387 10 0 60293 30600.00000 0 25022882.768 4954993.211 -596284.471 10 0 60293 31500.00000 0 24926629.950 4788959.887 2611140.083 10 0 60293 32400.00000 0 24429179.017 4589485.518 5767886.061 10 0 60293 33300.00000 0 23537336.668 4411884.549 8812695.248 10 0 60293 34200.00000 0 22271004.221 4309383.749 11686490.383 10 0 60293 35100.00000 0 20662436.679 4330644.424 14333518.808 10 0 60293 36000.00000 0 18755003.096 4517484.052 16702430.747 10 0 60293 36900.00000 0 16601499.868 4902893.756 18747271.573 10 0 60293 37800.00000 0 14262087.103 5509435.527 20428369.241 10 0 60293 38700.00000 0 11801933.665 6348087.125 21713100.201 10 0 60293 39600.00000 0 9288668.445 7417583.840 22576519.480 10 0 60293 40500.00000 0 6789743.191 8704285.560 23001843.239 10 0 60293 41400.00000 0 4369815.742 10182575.770 22980774.796 10 0 60293 42300.00000 0 2088261.560 11815776.915 22513667.983 10 0 60293 43200.00000 0 -3083.929 13557545.165 21609524.586 10 0 60293 44100.00000 0 -1861859.213 15353687.542 20285825.579 10 0 60293 45000.00000 0 -3456707.138 17144326.699 18568198.864 10 0 60293 45900.00000 0 -4768338.945 18866323.862 16489929.211 10 0 60293 46800.00000 0 -5790088.206 20455859.414 14091319.080 10 0 60293 47700.00000 0 -6527932.126 21851063.537 11418911.926 10 0 60293 48600.00000 0 -6999979.971 22994586.817 8524592.383 10 0 60293 49500.00000 0 -7235450.728 23836002.805 5464580.314 10 0 60293 50400.00000 0 -7273183.668 24333941.130 2298338.106 10 0 60293 51300.00000 0 -7159745.367 24457860.837 -912587.464 10 0 60293 52200.00000 0 -6947213.919 24189388.536 -4105765.914 10 0 60293 53100.00000 0 -6690734.935 23523164.211 -7219102.294 10 0 60293 54000.00000 0 -6445953.694 22467158.326 -10192050.550 10 0 60293 54900.00000 0 -6266433.166 21042446.214 -12966796.636 10 0 60293 55800.00000 0 -6201168.159 19282448.754 -15489387.640 10 0 60293 56700.00000 0 -6292301.758 17231670.917 -17710784.413 10 0 60293 57600.00000 0 -6573141.436 14943990.865 -19587816.903 10 0 60293 58500.00000 0 -7066559.422 12480571.250 -21084023.511 10 0 60293 59400.00000 0 -7783845.466 9907479.989 -22170358.294 10 0 60293 60300.00000 0 -8724060.907 7293119.793 -22825752.598 10 0 60293 61200.00000 0 -9873921.722 4705573.483 -23037520.653 10 0 60293 62100.00000 0 -11208215.894 2209975.336 -22801601.755 10 0 60293 63000.00000 0 -12690738.011 -133982.674 -22122634.808 10 0 60293 63900.00000 0 -14275702.250 -2274306.728 -21013864.158 10 0 60293 64800.00000 0 -15909574.895 -4168626.234 -19496878.811 10 0 60293 65700.00000 0 -17533249.938 -5785709.174 -17601190.217 10 0 60293 66600.00000 0 -19084476.900 -7106505.920 -15363656.826 10 0 60293 67500.00000 0 -20500439.364 -8124679.485 -12827766.518 10 0 60293 68400.00000 0 -21720376.331 -8846601.589 -10042790.716 10 0 60293 69300.00000 0 -22688136.536 -9290816.274 -7062826.545 10 0 60293 70200.00000 0 -23354558.613 -9486995.088 -3945745.599 10 0 60293 71100.00000 0 -23679577.149 -9474429.159 -752069.762 10 0 60293 72000.00000 0 -23633966.135 -9300122.858 2456203.930 10 0 60293 72900.00000 0 -23200646.470 -9016570.461 5616806.411 10 0 60293 73800.00000 0 -22375502.478 -8679310.453 8668404.170 10 0 60293 74700.00000 0 -21167672.956 -8344361.323 11551787.715 10 0 60293 75600.00000 0 -19599304.310 -8065647.585 14211017.831 10 0 60293 76500.00000 0 -17704775.790 -7892524.920 16594507.533 10 0 60293 77400.00000 0 -15529428.812 -7867509.062 18656018.968 10 0 60293 78300.00000 0 -13127852.966 -8024304.318 20355556.367 10 0 60293 79200.00000 0 -10561799.513 -8386214.919 21660138.248 10 0 60293 80100.00000 0 -7897808.578 -8965006.356 22544434.434 10 0 60293 81000.00000 0 -5204647.879 -9760264.988 22991256.042 10 0 60293 81900.00000 0 -2550668.489 -10759283.469 22991889.336 10 0 60293 82800.00000 0 -1186.508 -11937477.640 22546267.115 10 0 60293 83700.00000 0 2384001.633 -13259318.403 21662974.277 10 0 60293 84600.00000 0 4552867.983 -14679740.689 20359087.090 10 0 60293 85500.00000 0 6463073.391 -16145971.541 18659848.753 99